This demonstration page uses our WeatherBlox Daily Observations layout. Learn more.

Left ArrowRight Arrow

Hourly Observations for November 27, 2016

Temp ( °F °C ) Dew Point ( °F °C ) Humidity (%) Winds ( mph kmh ) Pressure ( in mb ) Visibility ( mi km ) Precip ( " mm )
12:15 am 00:15 Clear 33 0.7 23 -4.8 67 67 S 7 11 29.97 1015 10 16 N/A
12:35 am 00:35 Clear 34 1 23 -5 65 65 S 7 11 29.97 1015 10 16 N/A
12:55 am 00:55 Clear 33 0.8 24 -4.6 68 68 S 6 9 29.94 1014 10 16 N/A
1:15 am 01:15 Clear 34 1.2 24 -4.5 66 66 S 6 9 29.88 1012 10 16 N/A
1:35 am 01:35 Clear 34 1.1 24 -4.5 67 67 SSE 5 7 29.88 1012 10 16 N/A
1:55 am 01:55 Clear 32 0.1 24 -4.6 71 71 SE 3 6 29.91 1013 10 16 N/A
2:15 am 02:15 Clear 31 -0.4 24 -4.6 74 74 SSE 8 13 29.88 1012 10 16 N/A
2:35 am 02:35 Clear 32 undefined 25 -4.1 74 74 SSE 7 11 29.88 1012 10 16 N/A
2:55 am 02:55 Clear 32 -0.1 25 -4 75 75 SSE 6 9 29.88 1012 10 16 N/A
3:15 am 03:15 Clear 32 undefined 26 -3.6 77 77 SSE 6 9 29.88 1012 10 16 N/A
3:35 am 03:35 Clear 33 0.6 27 -3 77 77 S 5 7 29.88 1012 10 16 N/A
3:55 am 03:55 Clear 33 0.4 27 -2.6 81 81 SSE 7 11 29.85 1011 10 16 N/A
4:15 am 04:15 Clear 34 1 29 -1.8 82 82 SSE 7 11 29.83 1010 10 16 N/A
4:35 am 04:35 Clear 34 1.2 30 -1 85 85 SSE 6 9 29.80 1009 10 16 N/A
4:55 am 04:55 Clear 35 1.7 31 -0.3 87 87 SSE 8 13 29.80 1009 10 16 N/A
5:15 am 05:15 Clear 36 2.1 33 0.4 89 89 SE 9 15 29.77 1008 10 16 N/A
5:35 am 05:35 Clear 37 2.5 34 1 90 90 SE 10 17 29.77 1008 10 16 N/A
5:55 am 05:55 Clear 37 3 35 1.5 90 90 SE 9 15 29.71 1006 10 16 N/A
6:15 am 06:15 Clear 38 3.2 36 2 92 92 SE 9 15 29.71 1006 10 16 N/A
6:35 am 06:35 Clear 38 3.2 36 2.1 93 93 SSE 10 17 29.68 1005 10 16 N/A
6:55 am 06:55 Clear 40 4.4 38 3.4 93 93 SSE 15 24 29.65 1004 10 16 N/A
7:15 am 07:15 Mostly Cloudy 41 4.9 39 3.8 93 93 SSE 14 22 29.62 1003 10 16 N/A
7:35 am 07:35 Cloudy 42 5.3 40 4.3 93 93 SSE 15 24 29.59 1002 10 16 N/A
7:55 am 07:55 Cloudy 43 6 41 5 93 93 SSE 16 26 29.59 1002 10 16 N/A
8:15 am 08:15 Cloudy 44 6.5 42 5.5 93 93 SSE 16 26 29.56 1001 10 16 N/A
8:35 am 08:35 Cloudy 44 6.8 43 5.9 94 94 SSE 17 28 29.56 1001 7 11 N/A
8:55 am 08:55 Cloudy 45 7.2 43 6.3 94 94 SSE 14 22 29.56 1001 7 11 N/A
9:15 am 09:15 Cloudy 46 8 45 7 93 93 SSE 14 22 29.56 1001 7 11 N/A
9:35 am 09:35 Cloudy 47 8.5 46 7.5 94 94 SSE 14 22 29.50 999 7 11 N/A
9:55 am 09:55 Cloudy 48 9.1 46 8 93 93 SSE 16 26 29.47 998 7 11 N/A
10:35 am 10:35 Cloudy 50 10.1 48 8.8 92 92 SE 18 30 29.44 997 10 16 N/A
10:55 am 10:55 Cloudy 50 10.2 48 8.9 92 92 S 16 26 29.47 998 10 16 N/A
11:15 am 11:15 Cloudy with Rain 51 10.7 49 9.3 91 91 SSE 15 24 29.41 996 10 16 N/A
11:35 am 11:35 Cloudy with Rain 52 11 49 9.6 91 91 SSE 17 28 29.38 995 10 16 N/A
11:55 am 11:55 Cloudy with Rain 52 11 50 9.8 92 92 S 18 30 29.38 995 4 6 0.04 1.02
12:15 pm 12:15 Cloudy with Rain 51 10.8 50 9.8 94 94 SSE 16 26 29.35 994 3 5 0.10 2.54
12:35 pm 12:35 Cloudy 53 11.5 51 10.6 94 94 SSE 20 31 29.32 993 7 11 0.11 2.79
12:55 pm 12:55 Cloudy 53 11.7 52 10.9 95 95 S 21 33 29.29 992 7 11 0.11 2.79
1:15 pm 13:15 Cloudy 54 12.2 52 11.2 94 94 S 22 35 29.26 991 10 16 N/A
1:35 pm 13:35 Cloudy 55 13 53 11.5 91 91 S 22 35 29.23 990 10 16 N/A
1:55 pm 13:55 Cloudy 55 13 52 11.3 90 90 S 18 30 29.21 989 10 16 N/A
2:15 pm 14:15 Cloudy 56 13.1 52 11.3 89 89 S 22 35 29.18 988 10 16 N/A
2:35 pm 14:35 Cloudy 56 13.5 53 11.5 88 88 S 21 33 29.15 987 10 16 N/A
2:55 pm 14:55 Mostly Cloudy with Nearby Thunderstorms 58 14.3 53 11.8 85 85 S 16 26 29.15 987 10 16 N/A
3:15 pm 15:15 Sunny with Nearby Thunderstorms 57 14.1 53 11.9 87 87 S 17 28 29.12 986 10 16 N/A
3:35 pm 15:35 Partly Cloudy 58 14.4 54 12 86 86 S 15 24 29.12 986 10 16 N/A
3:55 pm 15:55 Sunny with Nearby Thunderstorms 58 14.7 53 11.6 82 82 S 18 30 29.06 984 10 16 N/A
4:15 pm 16:15 Sunny 57 14.1 52 11 82 82 S 20 31 29.09 985 10 16 N/A
4:35 pm 16:35 Sunny 58 14.6 49 9.3 71 71 SSW 23 37 29.06 984 10 16 N/A
4:55 pm 16:55 Sunny 50 10 38 3.5 64 64 W 25 41 29.15 987 10 16 N/A
5:15 pm 17:15 Clear 46 7.6 37 2.5 70 70 W 22 35 29.21 989 10 16 N/A
5:35 pm 17:35 Clear 44 6.8 36 2.2 73 73 W 17 28 29.23 990 10 16 N/A
5:55 pm 17:55 Clear 44 6.6 36 2.2 74 74 WSW 16 26 29.23 990 10 16 N/A
6:15 pm 18:15 Clear 44 6.5 36 2.2 74 74 WSW 15 24 29.23 990 10 16 N/A
6:35 pm 18:35 Partly Cloudy 44 6.7 36 2.4 74 74 WSW 13 20 29.26 991 10 16 N/A
6:55 pm 18:55 Cloudy 45 7.1 37 2.6 73 73 WSW 14 22 29.23 990 10 16 N/A
7:15 pm 19:15 Cloudy 45 7.2 38 3.1 75 75 WSW 12 19 29.23 990 10 16 N/A
7:35 pm 19:35 Cloudy 45 7.3 38 3.3 76 76 WSW 10 17 29.26 991 10 16 N/A
7:55 pm 19:55 Cloudy 45 7.1 38 3.5 78 78 SW 7 11 29.26 991 10 16 N/A
8:15 pm 20:15 Mostly Cloudy 45 7.2 38 3.1 75 75 SW 10 17 29.26 991 10 16 N/A
8:35 pm 20:35 Cloudy 47 8.2 36 2 65 65 WSW 13 20 29.26 991 10 16 N/A
8:55 pm 20:55 Cloudy 45 7.4 36 2 69 69 SW 13 20 29.26 991 10 16 N/A
9:15 pm 21:15 Mostly Cloudy 45 7.1 36 2 70 70 SW 14 22 29.26 991 10 16 N/A
9:35 pm 21:35 Mostly Cloudy 43 6.2 35 1.8 74 74 SW 13 20 29.26 991 10 16 N/A
9:55 pm 21:55 Partly Cloudy 42 5.8 35 1.6 75 75 SW 15 24 29.26 991 10 16 N/A
10:15 pm 22:15 Clear 43 5.9 35 1.6 74 74 SW 15 24 29.26 991 10 16 N/A
10:35 pm 22:35 Clear 42 5.7 34 1.3 74 74 SW 14 22 29.26 991 10 16 N/A
10:55 pm 22:55 Clear 42 5.8 34 0.9 71 71 SW 13 20 29.26 991 10 16 N/A
11:15 pm 23:15 Clear 42 5.6 33 0.6 71 71 SW 15 24 29.26 991 10 16 N/A
11:35 pm 23:35 Clear 42 5.5 33 0.3 69 69 SW 15 24 29.26 991 10 16 N/A
11:55 pm 23:55 Clear 41 5 33 0.5 73 73 SW 13 20 29.29 992 10 16 N/A

Powered by AerisWeather